Gastonia, NC

6:58 AM EDT on October 01, 2016 (GMT -0400)
Gastonia Municipal

Weather History for KAKH - March, 2014

Change the Weather History Date:

Saturday, March 1, 2014

  Actual Average (KCLT) Record (KCLT)
Temperature  
Mean Temperature 45 °F 47 °F  
Max Temperature 57 °F 59 °F 82 °F (1918)
Min Temperature 33 °F 36 °F 15 °F (1980)
Degree Days  
Heating Degree Days 20 18  
Month to date heating degree days 18  
Since 1 July heating degree days 2717  
Cooling Degree Days 0 0  
Month to date cooling degree days 0  
Year to date cooling degree days 0  
Moisture  
Dew Point 26 °F    
Average Humidity 54    
Maximum Humidity 89    
Minimum Humidity 39    
Precipitation  
Precipitation 0.00 in 0.13 in 2.18 in (2009)
Month to date precipitation 0.13  
Year to date precipitation 6.86  
Snow  
Snow 0.00 in 0.00 in 4.00 in (2009)
Month to date snowfall 0.0  
Since 1 July snowfall 3.7  
Snow Depth -    
Sea Level Pressure  
Sea Level Pressure 30.28 in    
Wind  
Wind Speed 4 mph (North)    
Max Wind Speed 7 mph    
Max Gust Speed -    
Visibility 10 miles    
Events      
T = Trace of Precipitation, MM = Missing Value Source: NWS Daily Summary

Daily Weather History Graph

Daily Weather History Graph

Search for Another Location

Airport or City:

Trip Planner

Search our weather history database for the weather conditions in past years. The results will help you decide how hot, cold, wet, or windy it might be!

Date:

Astronomy

Mar. 01, 2014 Rise Set
Actual Time 6:54 AM EST 6:20 PM EST
Civil Twilight 6:28 AM EST 6:45 PM EST
Nautical Twilight 5:59 AM EST 7:15 PM EST
Astronomical Twilight 5:29 AM EST 7:44 PM EST
Moon 6:49 AM EST 7:02 PM EST
Length of Visible Light 12h 16m
Length of Day
11h 26m
New Moon, 0% of the Moon is Illuminated
Mar 1
New Moon
Mar 8
First Quarter
Mar 16
Full
Mar 23
Last Quarter
Mar 30
New

Hourly Weather History & Observations

Time (EST) Temp. Windchill Dew Point Humidity Pressure Visibility Wind Dir Wind Speed Gust Speed Precip Events Conditions
12:54 AM 33.1 °F 30.0 °F 18.0 °F 54% 30.27 in 7.0 mi NNE 3.5 mph - N/A   Clear
1:54 AM 35.1 °F 31.0 °F 19.9 °F 54% 30.27 in 8.0 mi NNE 4.6 mph - N/A   Mostly Cloudy
2:54 AM 36.0 °F 30.3 °F 19.0 °F 50% 30.26 in 9.0 mi NNE 6.9 mph - N/A   Overcast
3:54 AM 36.0 °F 30.3 °F 18.0 °F 48% 30.26 in 10.0 mi NNE 6.9 mph - N/A   Overcast
4:54 AM 35.1 °F 30.1 °F 19.9 °F 54% 30.27 in 10.0 mi North 5.8 mph - N/A   Overcast
5:54 AM 35.1 °F 31.0 °F 21.0 °F 57% 30.30 in 10.0 mi North 4.6 mph - N/A   Overcast
6:54 AM 35.1 °F 30.1 °F 19.9 °F 54% 30.31 in 10.0 mi North 5.8 mph - N/A   Overcast
7:54 AM 35.1 °F 30.1 °F 21.0 °F 57% 30.33 in 10.0 mi NNE 5.8 mph - 0.00 in   Overcast
8:54 AM 36.0 °F 32.1 °F 19.9 °F 52% 30.36 in 10.0 mi NNE 4.6 mph - 0.00 in   Overcast
9:54 AM 37.0 °F - 21.0 °F 52% 30.36 in 10.0 mi Calm Calm - N/A   Overcast
10:54 AM 41.0 °F - 21.0 °F 45% 30.36 in 10.0 mi Calm Calm - N/A   Overcast
11:54 AM 45.0 °F - 23.0 °F 42% 30.34 in 10.0 mi Calm Calm - N/A   Overcast
12:54 PM 50.0 °F - 26.1 °F 39% 30.31 in 10.0 mi Calm Calm - N/A   Overcast
1:54 PM 51.1 °F - 28.9 °F 43% 30.27 in 10.0 mi WSW 5.8 mph - N/A   Overcast
2:54 PM 54.0 °F - 30.0 °F 40% 30.24 in 10.0 mi Variable 5.8 mph - N/A   Clear
3:54 PM 57.0 °F - 32.0 °F 39% 30.20 in 10.0 mi South 5.8 mph - N/A   Clear
4:54 PM 55.9 °F - 33.1 °F 42% 30.21 in 10.0 mi Variable 5.8 mph - N/A   Clear
5:54 PM 54.0 °F - 34.0 °F 47% 30.22 in 10.0 mi South 3.5 mph - N/A   Clear
6:54 PM 48.9 °F - 35.1 °F 59% 30.23 in 10.0 mi Calm Calm - N/A   Clear
7:54 PM 46.9 °F - 35.1 °F 63% 30.24 in 10.0 mi Calm Calm - N/A   Clear
8:54 PM 44.1 °F - 35.1 °F 71% 30.25 in 10.0 mi Calm Calm - N/A   Clear
9:54 PM 43.0 °F - 35.1 °F 74% 30.26 in 10.0 mi Calm Calm - N/A   Clear
10:54 PM 41.0 °F - 35.1 °F 79% 30.26 in 10.0 mi Calm Calm - N/A   Clear
11:54 PM 37.0 °F 34.5 °F 34.0 °F 89% 30.25 in 5.0 mi WSW 3.5 mph - N/A   Clear